This demonstration page uses our WeatherBlox Daily Observations layout. Learn more.

36.17497, -115.13722

Hourly Observations for July 12, 2015

Temp ( °F °C ) Dew Point ( °F °C ) Humidity (%) Winds ( mph kmh ) Pressure ( in mb ) Visibility ( mi km ) Precip ( " mm )
12:53 am 00:53 Clear 83 28.3 39 3.9 21 21 SSW 3 6 29.93 1014 10 16.0934 0 0
1:53 am 01:53 Clear 81 27.2 39 3.9 22 22 Calm 29.93 1014 10 16.0934 0 0
2:53 am 02:53 Clear 79 26.1 38 3.3 23 23 ESE 5 7 29.92 1013 10 16.0934 0 0
3:53 am 03:53 Clear 78 25.6 38 3.3 24 24 Calm 29.93 1013 10 16.0934 0 0
4:53 am 04:53 Clear 76 24.4 39 3.9 26 26 Calm 29.93 1014 10 16.0934 0 0
5:53 am 05:53 Sunny 74 23.3 39 3.9 28 28 NE 3 6 29.95 1014 10 16.0934 0 0
6:53 am 06:53 Sunny 78 25.6 39 3.9 25 25 Calm 29.96 1015 10 16.0934 0 0
7:53 am 07:53 Sunny 80 26.7 41 5 25 25 Calm 29.97 1015 10 16.0934 0 0
8:53 am 08:53 Sunny 82 27.8 41 5 23 23 S 3 6 29.99 1016 10 16.0934 0 0
9:53 am 09:53 Sunny 85 29.4 43 6.1 23 23 VRB 3 6 29.99 1016 10 16.0934 0 0
10:53 am 10:53 Sunny 88 31.1 42 5.6 20 20 VRB 6 9 29.98 1015 10 16.0934 0 0
11:53 am 11:53 Sunny 92 33.3 39 3.9 16 16 SE 10 17 29.97 1015 10 16.0934 0 0
12:53 pm 12:53 Sunny 94 34.4 37 2.8 14 14 SSE 10 17 29.94 1014 10 16.0934 0 0
1:53 pm 13:53 Sunny 95 35 37 2.8 13 13 SSE 9 15 29.92 1013 10 16.0934 0 0
2:53 pm 14:53 Sunny 95 35 36 2.2 13 13 VRB 6 9 29.9 1013 10 16.0934 0 0
3:53 pm 15:53 Sunny 96 35.6 35 1.7 12 12 VRB 5 7 29.87 1012 10 16.0934 0 0
4:53 pm 16:53 Sunny 96 35.6 35 1.7 12 12 Calm 29.85 1011 10 16.0934 0 0
5:53 pm 17:53 Sunny 98 36.7 34 1.1 11 11 N 7 11 29.83 1010 10 16.0934 0 0
6:26 pm 18:26 Sunny 98 36.7 34 1.1 11 11 ENE 9 15 29.65 1004 10 16.0934 0 0
6:53 pm 18:53 Sunny 97 36.1 34 1.1 11 11 Calm 29.83 1010 10 16.0934 0 0
7:53 pm 19:53 Sunny 95 35 37 2.8 13 13 SW 10 17 29.83 1010 10 16.0934 0 0
8:53 pm 20:53 Clear 93 33.9 33 0.6 12 12 WSW 8 13 29.85 1011 10 16.0934 0 0
9:53 pm 21:53 Clear 91 32.8 31 -0.6 12 12 W 7 11 29.87 1012 10 16.0934 0 0
10:53 pm 22:53 Clear 87 30.6 33 0.6 14 14 S 6 9 29.88 1012 10 16.0934 0 0
11:53 pm 23:53 Clear 87 30.6 34 1.1 15 15 SSW 9 15 29.87 1012 10 16.0934 0 0

Powered by AerisWeather